User: anonymous   Login
Location: Trois-Rivi�res
(46.3500°N, 72.5500°W)
Time: 09:59:52
(UTC-04:00)
Language:

Cosmos 1544 - Orbit

View from above orbital plane
View from above orbital plane
View from above satellite
View from above satellite

Ground track
Ground track

The orbit data is extracted from the following two-line orbital elements,

1 14819U 84027A   15147.85547669  .00003385  00000-0  14760-3 0  9992
2 14819 082.4882 060.8887 0016605 151.8468 283.2682 15.21710635701375
Epoch (UTC): 27 May 2015 20:31:53
Eccentricity: 0.0016605
inclination: 82.4882°
perigee height: 489 km
apogee height: 512 km
right ascension of ascending node: 60.8887°
argument of perigee: 151.8468°
revolutions per day: 15.21710635
mean anomaly at epoch: 283.2682°
orbit number at epoch: 70137

The dashed part of the orbit path shows where the satellite is in the earth's shadow,  

DLR